"Time","Value","Approval","myLocation"
"2023-04-20 00:00",1.094,"Working","OW316"
"2023-04-20 01:00",1.075,"Working","OW316"
"2023-04-20 02:00",1.081,"Working","OW316"
"2023-04-20 03:00",1.039,"Working","OW316"
"2023-04-20 04:00",1.05,"Working","OW316"
"2023-04-20 05:00",1.066,"Working","OW316"
"2023-04-20 06:00",1.078,"Working","OW316"
"2023-04-20 07:00",1.081,"Working","OW316"
"2023-04-20 08:00",1.093,"Working","OW316"
"2023-04-20 09:00",1.1,"Working","OW316"
"2023-04-20 10:00",1.1,"Working","OW316"
"2023-04-20 11:00",1.104,"Working","OW316"
"2023-04-20 12:00",1.106,"Working","OW316"
"2023-04-20 13:00",1.107,"Working","OW316"
"2023-04-20 14:00",1.113,"Working","OW316"
"2023-04-20 15:00",1.115,"Working","OW316"
"2023-04-20 16:00",1.117,"Working","OW316"
"2023-04-20 17:00",1.118,"Working","OW316"
"2023-04-20 18:00",1.124,"Working","OW316"
"2023-04-20 19:00",1.12,"Working","OW316"
"2023-04-20 20:00",1.098,"Working","OW316"
"2023-04-20 21:00",1.109,"Working","OW316"
"2023-04-20 22:00",1.101,"Working","OW316"
"2023-04-20 23:00",1.104,"Working","OW316"
"2023-04-21 00:00",1.11,"Working","OW316"
"2023-04-21 01:00",1.096,"Working","OW316"
"2023-04-21 02:00",1.09,"Working","OW316"
"2023-04-21 03:00",1.087,"Working","OW316"
"2023-04-21 04:00",1.073,"Working","OW316"
"2023-04-21 05:00",1.07,"Working","OW316"
"2023-04-21 06:00",1.045,"Working","OW316"
"2023-04-21 07:00",1.031,"Working","OW316"
"2023-04-21 08:00",1.028,"Working","OW316"
"2023-04-21 09:00",1.023,"Working","OW316"
"2023-04-21 10:00",1.014,"Working","OW316"
"2023-04-21 11:00",1.014,"Working","OW316"
"2023-04-21 12:00",1.016,"Working","OW316"
"2023-04-21 13:00",1.017,"Working","OW316"
"2023-04-21 14:00",1.024,"Working","OW316"
"2023-04-21 15:00",1.037,"Working","OW316"
"2023-04-21 16:00",1.049,"Working","OW316"
"2023-04-21 17:00",1.054,"Working","OW316"
"2023-04-21 18:00",1.059,"Working","OW316"
"2023-04-21 19:00",1.061,"Working","OW316"
"2023-04-21 20:00",1.072,"Working","OW316"
"2023-04-21 21:00",1.056,"Working","OW316"
"2023-04-21 22:00",1.044,"Working","OW316"
"2023-04-21 23:00",1.026,"Working","OW316"
"2023-04-22 00:00",1.016,"Working","OW316"
"2023-04-22 01:00",1.007,"Working","OW316"
"2023-04-22 02:00",1.013,"Working","OW316"
"2023-04-22 03:00",1.009,"Working","OW316"
"2023-04-22 04:00",1.007,"Working","OW316"
"2023-04-22 05:00",1.014,"Working","OW316"
"2023-04-22 06:00",1.023,"Working","OW316"
"2023-04-22 07:00",1.032,"Working","OW316"
"2023-04-22 08:00",1.032,"Working","OW316"
"2023-04-22 09:00",1.034,"Working","OW316"
"2023-04-22 10:00",1.038,"Working","OW316"
"2023-04-22 11:00",1.04,"Working","OW316"
"2023-04-22 12:00",1.049,"Working","OW316"
"2023-04-22 13:00",1.042,"Working","OW316"
"2023-04-22 14:00",1.042,"Working","OW316"
"2023-04-22 15:00",1.047,"Working","OW316"
"2023-04-22 16:00",1.055,"Working","OW316"
"2023-04-22 17:00",1.057,"Working","OW316"
"2023-04-22 18:00",1.061,"Working","OW316"
"2023-04-22 19:00",1.069,"Working","OW316"
"2023-04-22 20:00",1.072,"Working","OW316"
"2023-04-22 21:00",1.072,"Working","OW316"
"2023-04-22 22:00",1.065,"Working","OW316"
"2023-04-22 23:00",1.063,"Working","OW316"
"2023-04-23 00:00",1.061,"Working","OW316"
"2023-04-23 01:00",1.038,"Working","OW316"
"2023-04-23 02:00",1.02,"Working","OW316"
"2023-04-23 03:00",1.02,"Working","OW316"
"2023-04-23 04:00",1.017,"Working","OW316"
"2023-04-23 05:00",1.019,"Working","OW316"
"2023-04-23 06:00",1.021,"Working","OW316"
"2023-04-23 07:00",1.021,"Working","OW316"
"2023-04-23 08:00",1.021,"Working","OW316"
"2023-04-23 09:00",1.023,"Working","OW316"
"2023-04-23 10:00",1.021,"Working","OW316"
"2023-04-23 11:00",1.02,"Working","OW316"
"2023-04-23 12:00",1.019,"Working","OW316"
"2023-04-23 13:00",1.011,"Working","OW316"
"2023-04-23 14:00",1.001,"Working","OW316"
"2023-04-23 15:00",1.006,"Working","OW316"
"2023-04-23 16:00",1.018,"Working","OW316"
"2023-04-23 17:00",1.007,"Working","OW316"
"2023-04-23 18:00",1.04,"Working","OW316"
"2023-04-23 19:00",1.053,"Working","OW316"
"2023-04-23 20:00",1.033,"Working","OW316"
"2023-04-23 21:00",1.001,"Working","OW316"
"2023-04-23 22:00",0.947,"Working","OW316"
"2023-04-23 23:00",0.922,"Working","OW316"
"2023-04-24 00:00",0.925,"Working","OW316"
"2023-04-24 01:00",0.927,"Working","OW316"
"2023-04-24 02:00",0.929,"Working","OW316"
"2023-04-24 03:00",0.93,"Working","OW316"
"2023-04-24 04:00",0.939,"Working","OW316"
"2023-04-24 05:00",0.94,"Working","OW316"
"2023-04-24 06:00",0.941,"Working","OW316"
"2023-04-24 07:00",0.938,"Working","OW316"
"2023-04-24 08:00",0.936,"Working","OW316"
"2023-04-24 09:00",0.938,"Working","OW316"
"2023-04-24 10:00",0.949,"Working","OW316"
"2023-04-24 11:00",0.948,"Working","OW316"
"2023-04-24 12:00",0.955,"Working","OW316"
"2023-04-24 13:00",0.956,"Working","OW316"
"2023-04-24 14:00",0.972,"Working","OW316"
"2023-04-24 15:00",1.01,"Working","OW316"
"2023-04-24 16:00",1.005,"Working","OW316"
"2023-04-24 17:00",1.007,"Working","OW316"
"2023-04-24 18:00",1.01,"Working","OW316"
"2023-04-24 19:00",1.013,"Working","OW316"
"2023-04-24 20:00",1.015,"Working","OW316"
"2023-04-24 21:00",1.017,"Working","OW316"
"2023-04-24 22:00",1.018,"Working","OW316"
"2023-04-24 23:00",1.02,"Working","OW316"
"2023-04-25 00:00",1.021,"Working","OW316"
"2023-04-25 01:00",1.023,"Working","OW316"
"2023-04-25 02:00",1.025,"Working","OW316"
"2023-04-25 03:00",1.027,"Working","OW316"
"2023-04-25 04:00",1.029,"Working","OW316"
"2023-04-25 05:00",1.032,"Working","OW316"
"2023-04-25 06:00",1.035,"Working","OW316"
"2023-04-25 07:00",1.036,"Working","OW316"
"2023-04-25 08:00",1.038,"Working","OW316"
"2023-04-25 09:00",1.041,"Working","OW316"
"2023-04-25 10:00",1.042,"Working","OW316"
"2023-04-25 11:00",1.045,"Working","OW316"
"2023-04-25 12:00",1.047,"Working","OW316"
"2023-04-25 13:00",1.048,"Working","OW316"
"2023-04-25 14:00",1.05,"Working","OW316"
"2023-04-25 15:00",1.052,"Working","OW316"
"2023-04-25 16:00",1.054,"Working","OW316"
"2023-04-25 17:00",1.057,"Working","OW316"
"2023-04-25 18:00",1.06,"Working","OW316"
"2023-04-25 19:00",1.062,"Working","OW316"
"2023-04-25 20:00",1.063,"Working","OW316"
"2023-04-25 21:00",1.065,"Working","OW316"
"2023-04-25 22:00",1.066,"Working","OW316"
"2023-04-25 23:00",1.068,"Working","OW316"
"2023-04-26 00:00",1.069,"Working","OW316"
"2023-04-26 01:00",1.071,"Working","OW316"
"2023-04-26 02:00",1.074,"Working","OW316"
"2023-04-26 03:00",1.076,"Working","OW316"
"2023-04-26 04:00",1.078,"Working","OW316"
"2023-04-26 05:00",1.081,"Working","OW316"
"2023-04-26 06:00",1.083,"Working","OW316"
"2023-04-26 07:00",1.084,"Working","OW316"
"2023-04-26 08:00",1.085,"Working","OW316"
"2023-04-26 09:00",1.087,"Working","OW316"
"2023-04-26 10:00",1.088,"Working","OW316"
"2023-04-26 11:00",1.091,"Working","OW316"
"2023-04-26 12:00",1.093,"Working","OW316"
"2023-04-26 13:00",1.093,"Working","OW316"
"2023-04-26 14:00",1.095,"Working","OW316"
"2023-04-26 15:00",1.096,"Working","OW316"
"2023-04-26 16:00",1.099,"Working","OW316"
"2023-04-26 17:00",1.102,"Working","OW316"
"2023-04-26 18:00",1.104,"Working","OW316"
"2023-04-26 19:00",1.104,"Working","OW316"
"2023-04-26 20:00",1.105,"Working","OW316"
"2023-04-26 21:00",1.107,"Working","OW316"
"2023-04-26 22:00",1.108,"Working","OW316"
"2023-04-26 23:00",1.109,"Working","OW316"
"2023-04-27 00:00",1.11,"Working","OW316"
"2023-04-27 01:00",1.112,"Working","OW316"
"2023-04-27 02:00",1.114,"Working","OW316"
"2023-04-27 03:00",1.115,"Working","OW316"
"2023-04-27 04:00",1.117,"Working","OW316"
"2023-04-27 05:00",1.12,"Working","OW316"
"2023-04-27 06:00",1.122,"Working","OW316"
"2023-04-27 07:00",1.124,"Working","OW316"
"2023-04-27 08:00",1.126,"Working","OW316"
"2023-04-27 09:00",1.127,"Working","OW316"
"2023-04-27 10:00",1.129,"Working","OW316"
"2023-04-27 11:00",1.131,"Working","OW316"
"2023-04-27 12:00",1.133,"Working","OW316"
"2023-04-27 13:00",1.134,"Working","OW316"
"2023-04-27 14:00",1.137,"Working","OW316"
"2023-04-27 15:00",1.14,"Working","OW316"
"2023-04-27 16:00",1.141,"Working","OW316"
"2023-04-27 17:00",1.143,"Working","OW316"
"2023-04-27 18:00",1.145,"Working","OW316"
"2023-04-27 19:00",1.146,"Working","OW316"
"2023-04-27 20:00",1.147,"Working","OW316"
"2023-04-27 21:00",1.148,"Working","OW316"
"2023-04-27 22:00",1.148,"Working","OW316"
"2023-04-27 23:00",1.15,"Working","OW316"
"2023-04-28 00:00",1.15,"Working","OW316"
"2023-04-28 01:00",1.151,"Working","OW316"
"2023-04-28 02:00",1.152,"Working","OW316"
"2023-04-28 03:00",1.153,"Working","OW316"
"2023-04-28 04:00",1.156,"Working","OW316"
"2023-04-28 05:00",1.158,"Working","OW316"
"2023-04-28 06:00",1.16,"Working","OW316"
"2023-04-28 07:00",1.162,"Working","OW316"
"2023-04-28 08:00",1.164,"Working","OW316"
"2023-04-28 09:00",1.166,"Working","OW316"
"2023-04-28 10:00",1.167,"Working","OW316"
"2023-04-28 11:00",1.168,"Working","OW316"
"2023-04-28 12:00",1.17,"Working","OW316"
"2023-04-28 13:00",1.171,"Working","OW316"
"2023-04-28 14:00",1.173,"Working","OW316"
"2023-04-28 15:00",1.175,"Working","OW316"
"2023-04-28 16:00",1.177,"Working","OW316"
"2023-04-28 17:00",1.179,"Working","OW316"
"2023-04-28 18:00",1.18,"Working","OW316"
"2023-04-28 19:00",1.181,"Working","OW316"
"2023-04-28 20:00",1.182,"Working","OW316"
"2023-04-28 21:00",1.183,"Working","OW316"
"2023-04-28 22:00",1.184,"Working","OW316"
"2023-04-28 23:00",1.185,"Working","OW316"
"2023-04-29 00:00",1.186,"Working","OW316"
"2023-04-29 01:00",1.188,"Working","OW316"
"2023-04-29 02:00",1.19,"Working","OW316"
"2023-04-29 03:00",1.192,"Working","OW316"
"2023-04-29 04:00",1.195,"Working","OW316"
"2023-04-29 05:00",1.198,"Working","OW316"
"2023-04-29 06:00",1.201,"Working","OW316"
"2023-04-29 07:00",1.203,"Working","OW316"
"2023-04-29 08:00",1.206,"Working","OW316"
"2023-04-29 09:00",1.208,"Working","OW316"
"2023-04-29 10:00",1.21,"Working","OW316"
"2023-04-29 11:00",1.212,"Working","OW316"
"2023-04-29 12:00",1.214,"Working","OW316"
"2023-04-29 13:00",1.216,"Working","OW316"
"2023-04-29 14:00",1.218,"Working","OW316"
"2023-04-29 15:00",1.221,"Working","OW316"
"2023-04-29 16:00",1.223,"Working","OW316"
"2023-04-29 17:00",1.225,"Working","OW316"
"2023-04-29 18:00",1.227,"Working","OW316"
"2023-04-29 19:00",1.23,"Working","OW316"
"2023-04-29 20:00",1.233,"Working","OW316"
"2023-04-29 21:00",1.235,"Working","OW316"
"2023-04-29 22:00",1.237,"Working","OW316"
"2023-04-29 23:00",1.238,"Working","OW316"
"2023-04-30 00:00",1.24,"Working","OW316"
"2023-04-30 01:00",1.242,"Working","OW316"
"2023-04-30 02:00",1.244,"Working","OW316"
"2023-04-30 03:00",1.246,"Working","OW316"
"2023-04-30 04:00",1.249,"Working","OW316"
"2023-04-30 05:00",1.251,"Working","OW316"
"2023-04-30 06:00",1.253,"Working","OW316"
"2023-04-30 07:00",1.255,"Working","OW316"
"2023-04-30 08:00",1.256,"Working","OW316"
"2023-04-30 09:00",1.259,"Working","OW316"
"2023-04-30 10:00",1.26,"Working","OW316"
"2023-04-30 11:00",1.262,"Working","OW316"
"2023-04-30 12:00",1.264,"Working","OW316"
"2023-04-30 13:00",1.266,"Working","OW316"
"2023-04-30 14:00",1.269,"Working","OW316"
"2023-04-30 15:00",1.27,"Working","OW316"
"2023-04-30 16:00",1.273,"Working","OW316"
"2023-04-30 17:00",1.274,"Working","OW316"
"2023-04-30 18:00",1.277,"Working","OW316"
"2023-04-30 19:00",1.28,"Working","OW316"
"2023-04-30 20:00",1.281,"Working","OW316"
"2023-04-30 21:00",1.283,"Working","OW316"
"2023-04-30 22:00",1.286,"Working","OW316"
"2023-04-30 23:00",1.287,"Working","OW316"
"2023-05-01 00:00",1.289,"Working","OW316"
"2023-05-01 01:00",1.291,"Working","OW316"
"2023-05-01 02:00",1.292,"Working","OW316"
"2023-05-01 03:00",1.294,"Working","OW316"
"2023-05-01 04:00",1.296,"Working","OW316"
"2023-05-01 05:00",1.299,"Working","OW316"
"2023-05-01 06:00",1.29,"Working","OW316"
"2023-05-01 07:00",1.292,"Working","OW316"
"2023-05-01 08:00",1.292,"Working","OW316"
"2023-05-01 09:00",1.289,"Working","OW316"
"2023-05-01 10:00",1.298,"Working","OW316"
"2023-05-01 11:00",1.304,"Working","OW316"
"2023-05-01 12:00",1.311,"Working","OW316"
"2023-05-01 13:00",1.309,"Working","OW316"
"2023-05-01 14:00",1.315,"Working","OW316"
"2023-05-01 15:00",1.322,"Working","OW316"
"2023-05-01 16:00",1.333,"Working","OW316"
"2023-05-01 17:00",1.34,"Working","OW316"
"2023-05-01 18:00",1.336,"Working","OW316"
"2023-05-01 19:00",1.338,"Working","OW316"
"2023-05-01 20:00",1.346,"Working","OW316"
"2023-05-01 21:00",1.35,"Working","OW316"
"2023-05-01 22:00",1.324,"Working","OW316"
"2023-05-01 23:00",1.326,"Working","OW316"
"2023-05-02 00:00",1.327,"Working","OW316"
"2023-05-02 01:00",1.32,"Working","OW316"
"2023-05-02 02:00",1.318,"Working","OW316"
"2023-05-02 03:00",1.314,"Working","OW316"
"2023-05-02 04:00",1.317,"Working","OW316"
"2023-05-02 05:00",1.315,"Working","OW316"
"2023-05-02 06:00",1.335,"Working","OW316"
"2023-05-02 07:00",1.331,"Working","OW316"
"2023-05-02 08:00",1.337,"Working","OW316"
"2023-05-02 09:00",1.34,"Working","OW316"
"2023-05-02 10:00",1.344,"Working","OW316"
"2023-05-02 11:00",1.34,"Working","OW316"
"2023-05-02 12:00",1.346,"Working","OW316"
"2023-05-02 13:00",1.349,"Working","OW316"
"2023-05-02 14:00",1.35,"Working","OW316"
"2023-05-02 15:00",1.358,"Working","OW316"
"2023-05-02 16:00",1.362,"Working","OW316"
"2023-05-02 17:00",1.371,"Working","OW316"
"2023-05-02 18:00",1.371,"Working","OW316"
"2023-05-02 19:00",1.356,"Working","OW316"
"2023-05-02 20:00",1.361,"Working","OW316"
"2023-05-02 21:00",1.358,"Working","OW316"
"2023-05-02 22:00",1.36,"Working","OW316"
"2023-05-02 23:00",1.364,"Working","OW316"
"2023-05-03 00:00",1.366,"Working","OW316"
"2023-05-03 01:00",1.368,"Working","OW316"
"2023-05-03 02:00",1.37,"Working","OW316"
"2023-05-03 03:00",1.373,"Working","OW316"
"2023-05-03 04:00",1.375,"Working","OW316"
"2023-05-03 05:00",1.379,"Working","OW316"
"2023-05-03 06:00",1.381,"Working","OW316"
"2023-05-03 07:00",1.384,"Working","OW316"
"2023-05-03 08:00",1.386,"Working","OW316"
"2023-05-03 09:00",1.388,"Working","OW316"
"2023-05-03 10:00",1.39,"Working","OW316"
"2023-05-03 11:00",1.392,"Working","OW316"
"2023-05-03 12:00",1.392,"Working","OW316"
"2023-05-03 13:00",1.394,"Working","OW316"
"2023-05-03 14:00",1.395,"Working","OW316"
"2023-05-03 15:00",1.396,"Working","OW316"
"2023-05-03 16:00",1.397,"Working","OW316"
"2023-05-03 17:00",1.398,"Working","OW316"
"2023-05-03 18:00",1.4,"Working","OW316"
"2023-05-03 19:00",1.402,"Working","OW316"
"2023-05-03 20:00",1.402,"Working","OW316"
"2023-05-03 21:00",1.403,"Working","OW316"
"2023-05-03 22:00",1.404,"Working","OW316"
"2023-05-03 23:00",1.406,"Working","OW316"
"2023-05-04 00:00",1.406,"Working","OW316"
"2023-05-04 01:00",1.407,"Working","OW316"
"2023-05-04 02:00",1.409,"Working","OW316"
"2023-05-04 03:00",1.411,"Working","OW316"
"2023-05-04 04:00",1.414,"Working","OW316"
"2023-05-04 05:00",1.418,"Working","OW316"
"2023-05-04 06:00",1.421,"Working","OW316"
"2023-05-04 07:00",1.423,"Working","OW316"
"2023-05-04 08:00",1.426,"Working","OW316"
"2023-05-04 09:00",1.427,"Working","OW316"
"2023-05-04 10:00",1.429,"Working","OW316"
"2023-05-04 11:00",1.431,"Working","OW316"
"2023-05-04 12:00",1.431,"Working","OW316"
"2023-05-04 13:00",1.432,"Working","OW316"
"2023-05-04 14:00",1.433,"Working","OW316"
"2023-05-04 15:00",1.433,"Working","OW316"
"2023-05-04 16:00",1.435,"Working","OW316"
"2023-05-04 17:00",1.436,"Working","OW316"
"2023-05-04 18:00",1.438,"Working","OW316"
"2023-05-04 19:00",1.439,"Working","OW316"
"2023-05-04 20:00",1.44,"Working","OW316"
"2023-05-04 21:00",1.44,"Working","OW316"
"2023-05-04 22:00",1.441,"Working","OW316"
"2023-05-04 23:00",1.442,"Working","OW316"
"2023-05-05 00:00",1.443,"Working","OW316"
"2023-05-05 01:00",1.445,"Working","OW316"
"2023-05-05 02:00",1.447,"Working","OW316"
"2023-05-05 03:00",1.449,"Working","OW316"
"2023-05-05 04:00",1.451,"Working","OW316"
"2023-05-05 05:00",1.454,"Working","OW316"
"2023-05-05 06:00",1.456,"Working","OW316"
"2023-05-05 07:00",1.458,"Working","OW316"
"2023-05-05 08:00",1.464,"Working","OW316"
"2023-05-05 09:00",1.447,"Working","OW316"
"2023-05-05 10:00",1.448,"Working","OW316"
"2023-05-05 11:00",1.452,"Working","OW316"
"2023-05-05 12:00",1.456,"Working","OW316"
"2023-05-05 13:00",1.456,"Working","OW316"
"2023-05-05 14:00",1.46,"Working","OW316"
"2023-05-05 15:00",1.463,"Working","OW316"
"2023-05-05 16:00",1.464,"Working","OW316"
"2023-05-05 17:00",1.464,"Working","OW316"
"2023-05-05 18:00",1.448,"Working","OW316"
"2023-05-05 19:00",1.45,"Working","OW316"
"2023-05-05 20:00",1.45,"Working","OW316"
"2023-05-05 21:00",1.444,"Working","OW316"
"2023-05-05 22:00",1.431,"Working","OW316"
"2023-05-05 23:00",1.434,"Working","OW316"
"2023-05-06 00:00",1.426,"Working","OW316"
"2023-05-06 01:00",1.407,"Working","OW316"
"2023-05-06 02:00",1.41,"Working","OW316"
"2023-05-06 03:00",1.403,"Working","OW316"
"2023-05-06 04:00",1.397,"Working","OW316"
"2023-05-06 05:00",1.399,"Working","OW316"
"2023-05-06 06:00",1.398,"Working","OW316"
"2023-05-06 07:00",1.395,"Working","OW316"
"2023-05-06 08:00",1.396,"Working","OW316"
"2023-05-06 09:00",1.399,"Working","OW316"
"2023-05-06 10:00",1.394,"Working","OW316"
"2023-05-06 11:00",1.391,"Working","OW316"
"2023-05-06 12:00",1.389,"Working","OW316"
"2023-05-06 13:00",1.386,"Working","OW316"
"2023-05-06 14:00",1.39,"Working","OW316"
"2023-05-06 15:00",1.394,"Working","OW316"
"2023-05-06 16:00",1.397,"Working","OW316"
"2023-05-06 17:00",1.405,"Working","OW316"
"2023-05-06 18:00",1.421,"Working","OW316"
"2023-05-06 19:00",1.417,"Working","OW316"
"2023-05-06 20:00",1.438,"Working","OW316"
"2023-05-06 21:00",1.414,"Working","OW316"
"2023-05-06 22:00",1.405,"Working","OW316"
"2023-05-06 23:00",1.402,"Working","OW316"
"2023-05-07 00:00",1.384,"Working","OW316"
"2023-05-07 01:00",1.385,"Working","OW316"
"2023-05-07 02:00",1.386,"Working","OW316"
"2023-05-07 03:00",1.387,"Working","OW316"
"2023-05-07 04:00",1.387,"Working","OW316"
"2023-05-07 05:00",1.388,"Working","OW316"
"2023-05-07 06:00",1.389,"Working","OW316"
"2023-05-07 07:00",1.39,"Working","OW316"
"2023-05-07 08:00",1.391,"Working","OW316"
"2023-05-07 09:00",1.391,"Working","OW316"
"2023-05-07 10:00",1.392,"Working","OW316"
"2023-05-07 11:00",1.393,"Working","OW316"
"2023-05-07 12:00",1.393,"Working","OW316"
"2023-05-07 13:00",1.393,"Working","OW316"
"2023-05-07 14:00",1.399,"Working","OW316"
"2023-05-07 15:00",1.408,"Working","OW316"
"2023-05-07 16:00",1.42,"Working","OW316"
"2023-05-07 17:00",1.408,"Working","OW316"
"2023-05-07 18:00",1.425,"Working","OW316"
"2023-05-07 19:00",1.441,"Working","OW316"
"2023-05-07 20:00",1.472,"Working","OW316"
"2023-05-07 21:00",1.462,"Working","OW316"
"2023-05-07 22:00",1.437,"Working","OW316"
"2023-05-07 23:00",1.426,"Working","OW316"
"2023-05-08 00:00",1.41,"Working","OW316"
"2023-05-08 01:00",1.412,"Working","OW316"
"2023-05-08 02:00",1.413,"Working","OW316"
"2023-05-08 03:00",1.414,"Working","OW316"
"2023-05-08 04:00",1.417,"Working","OW316"
"2023-05-08 05:00",1.42,"Working","OW316"
"2023-05-08 06:00",1.422,"Working","OW316"
"2023-05-08 07:00",1.424,"Working","OW316"
"2023-05-08 08:00",1.425,"Working","OW316"
"2023-05-08 09:00",1.427,"Working","OW316"
"2023-05-08 10:00",1.428,"Working","OW316"
"2023-05-08 11:00",1.429,"Working","OW316"
"2023-05-08 12:00",1.431,"Working","OW316"
"2023-05-08 13:00",1.432,"Working","OW316"
"2023-05-08 14:00",1.434,"Working","OW316"
"2023-05-08 15:00",1.435,"Working","OW316"
"2023-05-08 16:00",1.436,"Working","OW316"
"2023-05-08 17:00",1.438,"Working","OW316"
"2023-05-08 18:00",1.44,"Working","OW316"
"2023-05-08 19:00",1.442,"Working","OW316"
"2023-05-08 20:00",1.444,"Working","OW316"
"2023-05-08 21:00",1.444,"Working","OW316"
"2023-05-08 22:00",1.446,"Working","OW316"
"2023-05-08 23:00",1.448,"Working","OW316"
"2023-05-09 00:00",1.449,"Working","OW316"
"2023-05-09 01:00",1.451,"Working","OW316"
"2023-05-09 02:00",1.453,"Working","OW316"
"2023-05-09 03:00",1.456,"Working","OW316"
"2023-05-09 04:00",1.458,"Working","OW316"
"2023-05-09 05:00",1.461,"Working","OW316"
"2023-05-09 06:00",1.463,"Working","OW316"
"2023-05-09 07:00",1.465,"Working","OW316"
"2023-05-09 08:00",1.467,"Working","OW316"
"2023-05-09 09:00",1.468,"Working","OW316"
"2023-05-09 10:00",1.47,"Working","OW316"
"2023-05-09 11:00",1.472,"Working","OW316"
"2023-05-09 12:00",1.473,"Working","OW316"
"2023-05-09 13:00",1.475,"Working","OW316"
"2023-05-09 14:00",1.477,"Working","OW316"
"2023-05-09 15:00",1.478,"Working","OW316"
"2023-05-09 16:00",1.48,"Working","OW316"
"2023-05-09 17:00",1.481,"Working","OW316"
"2023-05-09 18:00",1.483,"Working","OW316"
"2023-05-09 19:00",1.484,"Working","OW316"
"2023-05-09 20:00",1.486,"Working","OW316"
"2023-05-09 21:00",1.487,"Working","OW316"
"2023-05-09 22:00",1.488,"Working","OW316"
"2023-05-09 23:00",1.489,"Working","OW316"
"2023-05-10 00:00",1.49,"Working","OW316"
"2023-05-10 01:00",1.491,"Working","OW316"
"2023-05-10 02:00",1.493,"Working","OW316"
"2023-05-10 03:00",1.494,"Working","OW316"
"2023-05-10 04:00",1.497,"Working","OW316"
"2023-05-10 05:00",1.498,"Working","OW316"
"2023-05-10 06:00",1.5,"Working","OW316"
"2023-05-10 07:00",1.502,"Working","OW316"
"2023-05-10 08:00",1.503,"Working","OW316"
"2023-05-10 09:00",1.504,"Working","OW316"
"2023-05-10 10:00",1.507,"Working","OW316"
"2023-05-10 11:00",1.51,"Working","OW316"
"2023-05-10 12:00",1.511,"Working","OW316"
"2023-05-10 13:00",1.512,"Working","OW316"
"2023-05-10 14:00",1.514,"Working","OW316"
"2023-05-10 15:00",1.514,"Working","OW316"
"2023-05-10 16:00",1.515,"Working","OW316"
"2023-05-10 17:00",1.516,"Working","OW316"
"2023-05-10 18:00",1.518,"Working","OW316"
"2023-05-10 19:00",1.52,"Working","OW316"
"2023-05-10 20:00",1.521,"Working","OW316"
"2023-05-10 21:00",1.522,"Working","OW316"
"2023-05-10 22:00",1.523,"Working","OW316"
"2023-05-10 23:00",1.524,"Working","OW316"
"2023-05-11 00:00",1.525,"Working","OW316"
"2023-05-11 01:00",1.527,"Working","OW316"
"2023-05-11 02:00",1.529,"Working","OW316"
"2023-05-11 03:00",1.531,"Working","OW316"
"2023-05-11 04:00",1.533,"Working","OW316"
"2023-05-11 05:00",1.535,"Working","OW316"
"2023-05-11 06:00",1.536,"Working","OW316"
"2023-05-11 07:00",1.54,"Working","OW316"
"2023-05-11 08:00",1.542,"Working","OW316"
"2023-05-11 09:00",1.544,"Working","OW316"
"2023-05-11 10:00",1.545,"Working","OW316"
"2023-05-11 11:00",1.547,"Working","OW316"
"2023-05-11 12:00",1.548,"Working","OW316"
"2023-05-11 13:00",1.549,"Working","OW316"
"2023-05-11 14:00",1.551,"Working","OW316"
"2023-05-11 15:00",1.553,"Working","OW316"
"2023-05-11 16:00",1.554,"Working","OW316"
"2023-05-11 17:00",1.556,"Working","OW316"
"2023-05-11 18:00",1.557,"Working","OW316"
"2023-05-11 19:00",1.558,"Working","OW316"
"2023-05-11 20:00",1.56,"Working","OW316"
"2023-05-11 21:00",1.56,"Working","OW316"
"2023-05-11 22:00",1.561,"Working","OW316"
"2023-05-11 23:00",1.563,"Working","OW316"
"2023-05-12 00:00",1.564,"Working","OW316"
"2023-05-12 01:00",1.566,"Working","OW316"
"2023-05-12 02:00",1.567,"Working","OW316"
"2023-05-12 03:00",1.569,"Working","OW316"
"2023-05-12 04:00",1.571,"Working","OW316"
"2023-05-12 05:00",1.573,"Working","OW316"
"2023-05-12 06:00",1.575,"Working","OW316"
"2023-05-12 07:00",1.577,"Working","OW316"
"2023-05-12 08:00",1.579,"Working","OW316"
"2023-05-12 09:00",1.581,"Working","OW316"
"2023-05-12 10:00",1.582,"Working","OW316"
"2023-05-12 11:00",1.583,"Working","OW316"
"2023-05-12 12:00",1.585,"Working","OW316"
"2023-05-12 13:00",1.586,"Working","OW316"
"2023-05-12 14:00",1.587,"Working","OW316"
"2023-05-12 15:00",1.588,"Working","OW316"
"2023-05-12 16:00",1.592,"Working","OW316"
"2023-05-12 17:00",1.593,"Working","OW316"